Wind_Speed
8 7 7 6 5 4 3 4 3 3 3 4 4 5 5 5 6 6 6 7 7 8 9 10 10 12 13 14 15 16 18 18 19 20 21 22 22 23
8 8 7 6 5 5 4 4 4 5 5 6 6 6 7 7 8 8 8 9 10 10 11 12 12 13 14 15 17 18 19 20 21 21 22 24 25 26
7 7 7 7 7 6 6 6 7 7 7 8 8 9 9 10 10 11 11 12 12 13 13 14 15 16 16 17 18 20 21 22 23 23 24 25 25 26
8 8 8 8 8 8 8 8 8 9 10 10 10 11 12 12 12 13 14 15 15 16 16 17 17 18 19 20 21 22 23 24 25 26 27 28 28 28
9 9 10 10 10 10 10 10 10 11 12 12 13 14 14 15 15 16 16 17 18 18 19 19 20 21 21 22 23 24 25 26 26 27 29 30 31 31
11 11 12 12 12 12 12 13 13 13 14 14 15 15 16 17 18 18 19 19 20 21 22 23 23 24 24 25 26 27 27 28 29 30 31 32 33 34
12 13 14 14 14 14 15 15 16 16 17 17 17 18 19 20 20 21 22 22 23 24 24 25 26 27 27 28 29 29 30 31 31 32 33 34 35 36
14 15 15 16 16 17 17 18 19 19 20 20 21 21 21 22 23 24 24 25 26 27 27 28 29 30 31 32 33 33 34 34 36 37 37 38 39 40
16 17 18 18 19 20 21 21 22 22 23 23 23 24 24 25 26 27 27 28 29 30 30 31 32 33 34 35 36 37 38 39 40 41 42 43 44 45
19 20 21 21 22 23 23 24 24 25 25 26 26 26 27 28 29 29 30 31 32 33 33 34 35 37 38 39 40 42 43 43 44 45 47 48 49 50
22 22 23 24 24 25 25 26 26 27 27 28 29 30 30 31 32 32 33 34 35 36 37 38 39 40 41 43 44 46 48 49 50 51 52 53 54 54
24 25 25 26 27 28 29 29 30 30 30 32 32 33 33 34 35 36 37 38 38 39 40 41 42 43 44 46 48 51 53 54 56 57 58 58 59 59
27 28 28 29 30 31 32 33 33 34 34 34 35 36 36 37 38 39 40 41 42 43 44 45 46 47 49 49 51 54 56 58 59 61 62 63 63 63
30 31 32 33 33 34 35 36 36 36 37 37 38 38 39 40 41 42 43 44 46 47 48 49 51 52 54 55 55 57 59 61 62 63 64 65 64 64
33 34 35 36 37 37 38 38 39 39 39 40 40 41 42 43 44 45 46 47 49 50 52 54 55 57 58 60 60 60 62 63 64 64 64 65 64 64
36 37 38 38 39 40 41 41 41 41 42 42 43 44 45 46 47 48 49 50 51 53 55 57 59 61 62 63 64 64 64 65 64 64 64 64 64 65
39 39 40 41 42 42 43 43 43 44 44 45 46 47 48 49 50 51 52 53 54 55 57 59 62 63 65 66 66 66 66 66 65 65 65 64 62 63
41 42 43 43 44 44 45 45 45 46 46 47 48 49 50 51 52 53 54 55 56 57 59 61 62 64 65 65 67 67 66 66 65 65 65 64 61 60
43 44 45 45 46 46 47 47 48 48 48 48 49 50 51 52 53 54 55 56 58 59 60 62 64 66 66 66 64 65 66 65 65 63 63 62 60 58
46 46 47 47 47 47 48 48 49 49 50 50 51 51 52 53 54 56 57 58 59 60 61 63 65 66 67 67 64 61 62 64 63 63 61 60 58 56
48 48 48 48 48 48 49 49 50 50 51 52 53 53 54 55 56 57 58 60 61 62 63 64 65 66 66 66 63 60 59 60 61 61 58 56 54 52
49 49 49 49 49 50 50 51 51 52 53 53 54 55 56 57 58 59 60 61 62 64 65 65 65 65 65 64 62 60 58 57 57 56 55 54 53 51
50 50 50 50 51 51 52 52 53 53 54 54 55 56 57 58 59 60 61 62 63 64 65 64 64 63 62 62 60 58 57 55 54 51 49 49 50 49
Wind_Direction
48 51 51 44 38 34 26 18 11 1 343 332 324 323 325 325 317 311 305 302 301 296 291 288 284 278 275 272 269 267 266 265 264 262 258 255 255 256
37 32 27 19 15 7 355 346 337 328 320 315 312 310 311 311 310 307 303 300 300 299 294 289 287 286 282 279 277 275 274 272 270 266 265 264 262 261
11 9 7 2 356 349 337 329 323 316 311 306 302 303 303 302 301 299 298 298 296 295 293 290 288 287 285 282 281 280 277 275 275 272 271 270 268 266
352 352 351 346 341 336 330 323 315 310 308 306 301 298 298 298 298 298 298 296 294 293 292 290 289 288 287 285 283 282 280 278 276 274 272 271 269 269
332 330 328 326 324 322 320 316 313 309 306 304 302 298 295 295 295 295 295 295 294 293 292 291 289 287 287 287 285 283 282 281 279 277 274 272 271 270
319 319 318 317 315 314 312 310 308 306 305 303 301 298 295 294 292 292 292 292 293 292 291 290 289 289 288 287 286 285 283 282 281 279 277 275 273 272
313 314 314 313 312 311 309 307 305 302 300 299 297 295 293 292 292 292 292 292 292 292 291 290 290 289 289 288 287 286 284 283 282 281 280 278 277 275
308 309 309 308 308 308 306 304 302 301 299 297 297 296 294 292 291 291 291 290 290 290 290 290 289 288 288 287 286 285 284 283 282 282 280 279 278 278
304 305 306 306 305 305 304 302 300 299 298 297 296 295 294 292 291 290 290 289 289 289 289 289 289 288 287 287 285 285 284 283 283 282 281 279 278 277
300 302 304 304 304 304 304 303 301 299 299 298 297 295 293 291 290 289 288 288 288 289 289 289 289 288 288 287 286 286 286 285 283 282 281 280 279 277
297 299 301 302 302 303 303 302 301 300 298 297 296 294 292 291 289 289 288 288 288 288 289 289 289 288 289 288 288 287 287 286 285 283 282 281 279 277
295 297 298 300 301 302 301 301 300 298 297 297 296 294 293 292 291 290 290 289 289 289 289 289 289 289 289 289 289 288 288 287 286 285 284 282 280 278
293 295 296 298 299 301 301 300 300 298 297 295 295 294 293 293 292 292 292 292 291 291 291 291 291 291 290 290 289 289 289 288 287 285 285 283 281 279
294 294 295 297 298 298 299 299 298 297 296 295 294 294 293 292 292 292 292 292 292 292 292 292 292 292 292 292 291 290 290 289 288 286 285 283 281 279
293 294 295 295 296 297 297 297 297 296 295 294 294 294 294 293 293 293 293 293 293 293 293 294 294 295 295 294 294 293 291 290 289 288 286 284 282 280
292 294 295 295 295 296 296 296 296 295 295 294 294 294 294 293 293 293 293 293 294 294 294 295 295 296 296 295 295 295 293 292 290 289 287 285 283 281
293 294 294 294 295 295 295 295 295 295 294 294 293 293 294 294 294 294 294 294 295 295 296 296 296 297 297 297 296 296 295 293 292 291 289 286 284 281
294 294 294 294 294 294 294 294 295 294 294 293 293 293 294 294 294 295 295 295 296 296 297 297 297 298 298 298 298 297 296 295 293 292 290 287 285 281
293 294 294 294 294 293 293 293 294 294 294 294 294 294 294 294 295 295 296 296 297 298 298 299 299 299 299 299 298 297 297 296 294 293 291 289 286 282
293 293 293 293 293 294 294 294 294 294 295 295 295 295 295 295 295 296 297 298 299 299 300 300 301 301 301 301 301 299 298 297 296 294 292 289 286 283
291 292 292 292 293 294 294 295 295 295 295 295 296 296 296 296 297 297 298 299 300 300 301 301 301 302 302 302 301 301 299 299 298 297 294 291 287 284
291 291 292 293 293 294 294 295 296 296 296 296 296 296 296 297 297 298 299 300 300 301 302 302 302 302 302 302 302 301 300 299 298 297 295 293 291 288
290 290 291 292 293 293 294 295 295 295 296 296 296 296 297 297 298 299 299 300 301 302 303 303 302 302 302 302 302 302 301 300 299 297 294 292 291 290
Height
5871 5870 5870 5870 5869 5869 5868 5868 5869 5868 5868 5867 5867 5866 5866 5865 5865 5865 5864 5864 5863 5863 5862 5862 5862 5862 5862 5861 5861 5862 5862 5862 5862 5862 5862 5862 5863 5864
5872 5871 5870 5870 5869 5868 5868 5868 5867 5867 5866 5866 5865 5865 5864 5864 5863 5863 5862 5861 5861 5860 5859 5859 5859 5858 5858 5858 5857 5857 5857 5857 5857 5857 5857 5857 5857 5858
5873 5872 5870 5869 5868 5867 5867 5866 5865 5865 5864 5864 5863 5863 5862 5861 5861 5860 5859 5858 5857 5857 5856 5855 5855 5854 5854 5853 5853 5852 5852 5852 5851 5851 5851 5851 5851 5851
5873 5871 5870 5868 5867 5866 5865 5863 5862 5862 5861 5861 5860 5859 5859 5858 5857 5856 5855 5854 5853 5853 5852 5851 5850 5850 5849 5848 5848 5847 5846 5846 5845 5845 5845 5845 5844 5844
5872 5870 5868 5866 5865 5863 5862 5861 5859 5858 5858 5857 5856 5855 5854 5854 5853 5852 5851 5850 5849 5848 5847 5846 5845 5844 5843 5842 5841 5841 5840 5839 5838 5838 5837 5836 5836 5836
5870 5868 5866 5864 5862 5860 5859 5858 5856 5855 5854 5853 5852 5851 5850 5848 5848 5847 5846 5844 5843 5842 5841 5840 5839 5837 5836 5835 5835 5833 5832 5831 5830 5829 5829 5828 5827 5827
5867 5865 5863 5861 5859 5857 5855 5854 5852 5851 5850 5848 5847 5846 5844 5843 5842 5841 5840 5838 5837 5836 5834 5833 5831 5830 5829 5827 5826 5825 5824 5823 5821 5820 5819 5818 5817 5817
5864 5862 5859 5857 5855 5853 5851 5850 5848 5846 5845 5843 5842 5840 5838 5837 5836 5834 5833 5832 5830 5829 5827 5825 5824 5822 5820 5818 5817 5815 5814 5812 5811 5810 5809 5808 5806 5806
5860 5858 5855 5853 5851 5848 5846 5844 5842 5840 5839 5837 5835 5834 5832 5830 5829 5827 5825 5824 5822 5820 5819 5817 5815 5813 5811 5809 5806 5804 5803 5801 5799 5798 5796 5795 5793 5792
5856 5853 5851 5848 5846 5843 5841 5838 5836 5834 5832 5830 5828 5826 5824 5823 5821 5819 5817 5815 5813 5810 5809 5807 5805 5803 5800 5797 5795 5792 5790 5788 5786 5784 5782 5780 5778 5776
5850 5848 5845 5843 5840 5837 5835 5832 5830 5827 5824 5822 5820 5818 5815 5813 5811 5809 5807 5805 5803 5800 5797 5795 5793 5791 5789 5785 5781 5778 5775 5773 5770 5767 5765 5762 5760 5758
5844 5842 5839 5836 5834 5831 5828 5825 5822 5819 5817 5814 5811 5808 5805 5803 5800 5798 5796 5793 5791 5789 5785 5783 5780 5777 5776 5773 5768 5763 5759 5755 5752 5748 5745 5742 5739 5737
5837 5835 5832 5829 5826 5823 5820 5817 5813 5810 5807 5804 5801 5798 5795 5792 5789 5786 5783 5781 5778 5775 5772 5769 5766 5762 5759 5757 5753 5747 5742 5737 5732 5728 5724 5720 5716 5713
5829 5826 5823 5820 5817 5814 5810 5807 5804 5801 5797 5794 5791 5788 5785 5781 5778 5774 5771 5767 5764 5761 5757 5753 5749 5745 5742 5738 5735 5730 5724 5717 5711 5706 5701 5697 5693 5690
5820 5817 5814 5811 5807 5804 5800 5797 5793 5790 5787 5783 5780 5776 5773 5769 5766 5762 5758 5754 5750 5745 5741 5736 5731 5727 5722 5717 5713 5709 5703 5697 5690 5684 5679 5674 5671 5667
5811 5808 5804 5801 5797 5793 5790 5786 5782 5778 5775 5771 5768 5764 5760 5756 5752 5748 5744 5740 5736 5731 5725 5719 5713 5708 5703 5697 5691 5686 5679 5673 5668 5662 5656 5653 5648 5643
5800 5797 5793 5790 5786 5782 5778 5774 5770 5766 5762 5758 5754 5750 5746 5742 5738 5733 5729 5724 5720 5715 5710 5703 5696 5689 5683 5677 5670 5664 5656 5651 5644 5638 5632 5630 5627 5621
5789 5785 5781 5777 5774 5770 5766 5762 5757 5753 5749 5744 5740 5736 5732 5727 5723 5718 5713 5708 5703 5698 5692 5686 5679 5672 5666 5660 5650 5641 5635 5628 5622 5616 5609 5604 5603 5600
5776 5773 5769 5765 5761 5756 5752 5748 5744 5740 5735 5731 5726 5722 5717 5713 5708 5703 5698 5692 5687 5681 5675 5667 5659 5651 5645 5641 5636 5624 5613 5607 5600 5595 5589 5583 5579 5578
5763 5759 5756 5751 5747 5743 5739 5734 5730 5726 5721 5716 5712 5707 5702 5697 5692 5687 5681 5675 5670 5664 5658 5650 5641 5631 5623 5617 5613 5608 5596 5585 5578 5573 5568 5563 5559 5556
5749 5745 5741 5737 5733 5729 5725 5720 5716 5711 5706 5702 5697 5692 5687 5681 5676 5670 5665 5659 5652 5646 5639 5633 5623 5614 5604 5597 5592 5588 5581 5569 5559 5552 5546 5542 5539 5537
5735 5731 5727 5723 5719 5714 5710 5706 5701 5696 5691 5686 5682 5676 5671 5665 5660 5654 5648 5641 5635 5628 5621 5614 5605 5596 5587 5579 5572 5567 5562 5555 5545 5536 5529 5522 5517 5516
5720 5716 5712 5708 5704 5699 5695 5690 5686 5681 5676 5671 5666 5660 5655 5649 5643 5637 5630 5624 5617 5609 5602 5595 5587 5579 5570 5562 5555 5549 5543 5536 5530 5524 5518 5510 5503 5499